Overview Statistics Trail Chart Weather Telemetry Raw packets
 

This is the latest recevied weather packets stored in our database for station/object KB1RMA-4. If no packets are shown the sender has not sent any weather packets the latest 10 day(s).

<< 52 53 54 55 56 57 58 >>
Time Temp. Humidity Pressure Rain* Wind** Luminosity Snow
1788281515 18.33° C 84% 1018.5 hPa 0 mm - 181 W/m² -
1788281212 17.78° C 85% 1018.6 hPa 0 mm - 185 W/m² -
1788280912 17.78° C 86% 1018.4 hPa 0 mm - 271 W/m² -
1788280607 17.78° C 86% 1018.5 hPa 0 mm - 267 W/m² -
1788280306 17.78° C 87% 1018.5 hPa 0 mm - 183 W/m² -
1788280002 17.78° C 88% 1018.5 hPa 0 mm - 164 W/m² -
1788279701 17.22° C 89% 1018.5 hPa 0 mm - 151 W/m² -
1788279400 17.78° C 91% 1018.5 hPa 0 mm - 154 W/m² -
1788279099 17.22° C 93% 1018.5 hPa 0 mm - 185 W/m² -
1788278796 17.22° C 94% 1018.2 hPa 0 mm - 217 W/m² -
1788278491 17.22° C 95% 1018.4 hPa 0 mm - 223 W/m² -
1788278190 17.22° C 95% 1018.3 hPa 0 mm - 236 W/m² -
1788277905 17.22° C 95% 1018.3 hPa 0 mm - 205 W/m² -
1788277580 17.22° C 95% 1018.2 hPa 0 mm - 157 W/m² -
1788277275 17.78° C 96% 1018.3 hPa 0 mm - 201 W/m² -
1788276970 17.22° C 96% 1018 hPa 0 mm - 258 W/m² -
1788276669 16.67° C 96% 1018.6 hPa 0 mm - 231 W/m² -
1788276365 17.22° C 96% 1018.3 hPa 0 mm - 203 W/m² -
1788276063 16.67° C 96% 1018.2 hPa 0 mm - 189 W/m² -
1788275759 16.67° C 96% 1018.4 hPa 0 mm - 254 W/m² -
1788275458 17.22° C 96% 1018.4 hPa 0 mm - 232 W/m² -
1788275157 17.22° C 96% 1018 hPa 0 mm - 255 W/m² -
1788274855 17.22° C 96% 1018.3 hPa 0 mm - 261 W/m² -
1788274555 17.22° C 96% 1018.1 hPa 0 mm - 242 W/m² -
1788274254 17.22° C 96% 1018.1 hPa 0 mm - 212 W/m² -

* Rain latest hour (hover to see other rain measurements)
** Current wind speed in m/s (hover to see current wind gust speed)